TimeEDT,TemperatureF,Dew PointF,Humidity,Sea Level PressureIn,VisibilityMPH,Wind Direction,Wind SpeedMPH,Gust SpeedMPH,PrecipitationIn,Events,Conditions,WindDirDegrees,DateUTC
12:54 AM,57.9,57.0,97,29.59,10.0,SSW,3.5,-,N/A,,Overcast,210,2012-10-16 04:54:00
1:54 AM,57.0,54.0,89,29.57,10.0,SW,3.5,-,N/A,,Overcast,230,2012-10-16 05:54:00
2:54 AM,55.9,52.0,87,29.55,10.0,WSW,4.6,-,N/A,,Overcast,240,2012-10-16 06:54:00
3:54 AM,55.9,51.1,84,29.56,10.0,WSW,4.6,-,N/A,,Overcast,240,2012-10-16 07:54:00
4:54 AM,54.0,52.0,93,29.54,10.0,Calm,Calm,-,N/A,,Overcast,0,2012-10-16 08:54:00
5:54 AM,53.1,48.9,86,29.53,10.0,Calm,Calm,-,0.01,Rain,Light Rain,0,2012-10-16 09:54:00
6:54 AM,52.0,46.0,80,29.54,10.0,WSW,3.5,-,0.00,Rain,Light Rain,250,2012-10-16 10:54:00
7:54 AM,53.1,44.1,71,29.55,10.0,West,10.4,16.1,0.00,,Mostly Cloudy,280,2012-10-16 11:54:00
8:54 AM,51.1,41.0,68,29.55,10.0,WNW,6.9,-,N/A,,Overcast,300,2012-10-16 12:54:00
9:54 AM,51.1,39.0,63,29.56,10.0,West,8.1,-,N/A,,Overcast,280,2012-10-16 13:54:00
10:54 AM,52.0,37.0,57,29.57,10.0,Variable,4.6,-,N/A,,Overcast,0,2012-10-16 14:54:00
11:54 AM,51.1,35.1,54,29.58,10.0,WNW,11.5,19.6,N/A,,Overcast,290,2012-10-16 15:54:00
12:54 PM,48.9,34.0,56,29.59,10.0,West,16.1,25.3,N/A,,Overcast,280,2012-10-16 16:54:00
1:54 PM,50.0,34.0,54,29.60,10.0,West,15.0,25.3,N/A,,Partly Cloudy,260,2012-10-16 17:54:00
2:54 PM,48.9,32.0,52,29.62,10.0,West,9.2,23.0,N/A,,Clear,280,2012-10-16 18:54:00
4:54 PM,46.9,33.1,59,29.68,10.0,West,11.5,24.2,N/A,,Clear,280,2012-10-16 20:54:00
5:54 PM,44.1,32.0,63,29.72,10.0,West,6.9,-,N/A,,Clear,260,2012-10-16 21:54:00
6:54 PM,44.1,30.9,60,29.74,10.0,Variable,3.5,-,N/A,,Clear,0,2012-10-16 22:54:00
7:54 PM,43.0,30.9,62,29.76,10.0,Calm,Calm,-,N/A,,Clear,0,2012-10-16 23:54:00
8:54 PM,37.0,32.0,82,29.80,10.0,WSW,4.6,-,0.00,,Clear,240,2012-10-17 00:54:00
9:54 PM,36.0,30.0,79,29.83,10.0,North,4.6,-,N/A,,Clear,350,2012-10-17 01:54:00
10:54 PM,33.1,30.9,92,29.84,10.0,West,3.5,-,N/A,,Clear,260,2012-10-17 02:54:00
11:54 PM,32.0,30.0,92,29.85,10.0,Calm,Calm,-,N/A,,Clear,0,2012-10-17 03:54:00